Location: Tucson
(32.2217°N, 110.9265°W)
Time: 10:59:01
(UTC-07:00)

Envisat - Pass Details

Date: 01 October 2021
Orbit: 764 x 766 km, 98.2° (Epoch: 22 October)

Event Time Altitude Azimuth Distance (km) Brightness Sun altitude
Rises 04:58:09 0° 20° (NNE) 3,231 6.6 -17.7°
Reaches altitude 10° 05:00:35 10° 28° (NNE) 2,301 5.9 -17.2°
Maximum altitude 05:05:24 43° 99° (E) 1,066 4.3 -16.1°
Drops below altitude 10° 05:10:10 10° 170° (S) 2,288 5.5 -15.1°
Sets 05:12:34 0° 177° (S) 3,210 6.2 -14.6°
